Regional Weather Roundup
Issued by NWS

Home | Current Version | Previous Version | Graphics & Text | Print | Product List | Glossary On
Versions: 1 2 3 4 5 6 7 8 9 10 11 12 13 14 15 16 17 18 19 20 21 22 23 24 25 26 27 28 29 30 31 32 33 34 35 36 37 38 39 40 41 42 43 44 45 46 47 48 49 50
000
ASUS43 KLMK 030802
RWRKY
KENTUCKY REGIONAL WEATHER ROUNDUP
NATIONAL WEATHER SERVICE LOUISVILLE KY
400 AM EDT SUN MAY 03 2015

NOTE "FAIR" INDICATES FEW OR NO CLOUDS BELOW 12,000 FEET
WITH NO SIGNIFICANT WEATHER AND/OR OBSTRUCTIONS TO VISIBILITY.

KYZ001>023-026-027-061>063-070>075-030900-
WESTERN AND SOUTH CENTRAL KENTUCKY

CITY           SKY/WX    TMP DP  RH WIND       PRES   REMARKS
PADUCAH        CLEAR     52  47  83 CALM      30.04R
HENDERSON      CLEAR     54  46  76 CALM      30.04S
OWENSBORO      CLEAR     56  50  80 CALM      30.07R
HOPKINSVILLE   CLEAR     55  50  83 SE1       30.06S HAZE
BOWLING GREEN  FOG       49  46  90 CALM      30.08R VSB 1
GLASGOW        NOT AVBL
$$

KYZ024-025-028>034-038-045-046-053-030900-
NORTH CENTRAL KENTUCKY

CITY           SKY/WX    TMP DP  RH WIND       PRES   REMARKS
LOUISVILLE/SDF MOCLDY    56  48  74 CALM      30.08R
LOUISVILLE/LOU PTCLDY    53  47  79 CALM      30.08R
FORT KNOX      PTCLDY    49  46  90 CALM      30.06S
$$

KYZ035>037-039>044-047>052-055>060-089>105-030900-
NORTHEAST KENTUCKY

CITY           SKY/WX    TMP DP  RH WIND       PRES   REMARKS
LEXINGTON      PTCLDY    52  44  74 SE3       30.09R
COVINGTON      NOT AVBL
FRANKFORT      PTCLDY    48  44  86 CALM      30.08R
$$

KYZ054-064>069-076>088-106>120-030900-
SOUTHEAST KENTUCKY

CITY           SKY/WX    TMP DP  RH WIND       PRES   REMARKS
JACKSON        CLEAR     56  38  50 S3        30.10S
LONDON         CLEAR     47  42  83 CALM      30.10S
SOMERSET       NOT AVBL
MIDDLESBORO    CLEAR     43  42  98 CALM      30.14R
MONTICELLO     SUNNY     44  44 100 CALM      30.13R
$$



USA.gov is the U.S. government's official web portal to all federal, state and local government web resources and services.